Regional Weather Roundup
Issued by NWS

Home | Current Version | Previous Version | Text Only | Print | Product List | Glossary On
Versions: 1 2 3 4 5 6 7 8 9 10 11 12 13 14 15 16 17 18 19 20 21 22 23 24 25 26 27 28 29 30 31 32 33 34 35 36 37 38 39 40 41 42 43 44 45 46 47 48 49 50
000
ASMX46 KSGX 100211
RWRMX

MEXICAN WEATHER ROUNDUP
NATIONAL WEATHER SERVICE SAN DIEGO CA
600 PM PST FRI DEC 09 2016

BAJA CALIFORNIA

CITY           SKY/WX    TMP DP  RH WIND       PRES   REMARKS
ENSENADA NW      N/A     60  32  34 E3        30.12R
LA PAZ         CLEAR     70  55  60 NE7       30.04
LORETO         CLEAR     73  46  38 CALM      30.01R
MEXICALI       CLOUDY    61  18  18 NW5       30.14
S.J. DEL CABO  CLEAR     70  59  68 NW8       30.01
TIJUANA        PTCLDY    59  52  77 W7        30.19R

NORTHWESTERN MEXICO

CITY           SKY/WX    TMP DP  RH WIND       PRES   REMARKS
CHIHUAHUA      CLEAR     43  37  81 E6        30.34
CULIACAN       CLEAR     73  55  53 CALM      29.96
GUAYMAS        CLEAR     72  55  56 CALM      29.95S
HERMOSILLO     MOCLDY    72  43  35 W5        30.03
JUAREZ         PTCLDY    41  37  87 CALM      30.23
LOS MOCHIS     CLEAR     68  55  64 NW9       30.00R
OBREGON          N/A    N/A N/A N/A MISG        N/A

NORTHEASTERN MEXICO

CITY           SKY/WX    TMP DP  RH WIND       PRES   REMARKS
MATAMOROS      CLOUDY    45  34  65 NW14      30.46
MONCLOVA         N/A    N/A N/A N/A MISG        N/A
MONTERREY      CLOUDY    45  39  81 E6        30.46R
NUEVO LAREDO   CLOUDY    46  28  49 E10       30.49
PIEDRAS NEGRAS   N/A    N/A N/A N/A MISG        N/A
REYNOSA        CLOUDY    43  28  56 NW12      30.49
SALTILLO       FOG       39  37  93 CALM      30.42S VSB 3/4
TORREON        CLEAR     55  41  58 CALM      30.32R
VICTORIA       DRIZZLE   45  45 100 NW6       30.47

WESTERN MEXICO

CITY           SKY/WX    TMP DP  RH WIND       PRES   REMARKS
AGUASCALIENTES PTCLDY    59  45  58 NE20      30.35
COLIMA         CLEAR     73  70  88 CALM      30.05R
DURANGO        CLEAR     52  36  54 N9        30.33
GUADALAJARA    PTCLDY    63  50  63 SE5       30.23
MANZANILLO     CLEAR     79  72  78 NW6       29.90R
MAZATLAN       PTCLDY    68  63  83 N2        29.96R
PTO. VALLARTA  PTCLDY    72  70  94 CALM      29.96R
TEPIC          PTCLDY    63  61  94 CALM      30.10R
URUAPAN          N/A    N/A N/A N/A MISG        N/A
ZACATECAS      CLEAR     54  39  58 SE20      30.38R

CENTRAL MEXICO

CITY           SKY/WX    TMP DP  RH WIND       PRES   REMARKS
CUERNAVACA       N/A    N/A N/A N/A MISG        N/A
LEON           PTCLDY    59  46  63 NE9       30.39R
MEXICO CITY    PTCLDY    59  45  58 N12       30.45R
MORELIA        PTCLDY    63  48  59 CALM      30.32
POZA RICA      FOG       55  55 100 N9        30.34R VSB 1
PUEBLA         PTCLDY    55  45  67 N16       30.45R
QUERETARO      MOCLDY    54  46  76 NE9       30.47R
S. LUIS POTOSI CLOUDY    52  43  71 E12       30.45R
TAMPICO        DRIZZLE   54  52  94 W9        30.39S
TOLUCA         PTCLDY    54  45  71 W12       30.49R
VERACRUZ       CLOUDY    68  63  83 N9        30.20R

SOUTHERN MEXICO

CITY           SKY/WX    TMP DP  RH WIND       PRES   REMARKS
ACAPULCO       CLEAR     81  75  83 W6        29.90R
B. DE HUATULCO MOCLDY    79  68  69 CALM      30.01
MINATITLAN     MOCLDY    70  66  88 N17G30    30.11
OAXACA         PTCLDY    63  52  67 N9        30.33R
PTO. ESCONDIDO   N/A    N/A N/A N/A MISG        N/A
TAPACHULA      PTCLDY    77  70  78 CALM      29.92R
TUX. GUTIERREZ MOCLDY    68  59  73 W21G32    30.13R
VILLAHERMOSA   CLOUDY    72  70  94 W8        30.16R
ZIHUATANEJO    PTCLDY    81  73  78 N2        29.92R

YUCATAN PENINSULA

CITY           SKY/WX    TMP DP  RH WIND       PRES   REMARKS
CAMPECHE       PTCLDY    81  75  83 NW14      30.05R
CANCUN         PTCLDY    77  72  83 NE12      30.13R
CHETUMAL       PTCLDY    79  73  83 CALM      30.08
C. DEL CARMEN    N/A    N/A N/A N/A MISG        N/A
COZUMEL        PTCLDY    77  73  88 E5        30.09R
MERIDA         RAIN      73  72  94 SE9       30.11

$$





USA.gov is the U.S. government's official web portal to all federal, state and local government web resources and services.